SCP
-0 0 0 0 0 0 0 0 -0 0 -0 -0 0 0 0 0 0 1 1 1 0 0 0 0 0 0 0 0 0 0 -0 0 0 0 1 1 1 1 1 1 1 2 2 2
0 0 0 0 0 -0 -0 0 -0 -0 -0 0 0 0 0 0 1 1 1 1 0 0 0 0 0 0 0 0 0 0 0 0 0 0 0 1 1 1 1 1 1 2 3 3
0 0 0 0 0 -0 0 0 0 0 0 0 0 0 0 0 0 1 1 1 0 0 0 0 0 0 0 0 0 0 0 1 1 0 0 0 1 1 0 0 0 0 0 0
0 0 0 0 0 0 0 0 0 0 0 0 0 0 0 0 0 0 0 0 0 0 0 0 0 0 0 0 1 1 1 1 1 1 0 0 0 0 0 0 0 0 0 0
0 0 0 0 0 0 0 0 0 0 0 0 0 0 0 0 0 0 0 0 0 0 0 0 0 0 0 0 0 0 0 0 0 0 1 1 1 1 0 0 0 0 0 0
0 0 0 0 0 0 0 0 0 0 0 0 0 0 0 0 0 0 0 0 0 0 0 0 0 0 0 0 0 0 0 0 0 0 0 0 1 0 0 0 0 0 0 0
0 0 0 0 0 0 0 0 -0 -0 0 0 0 0 0 0 0 0 0 0 0 0 0 0 0 0 0 0 0 0 0 0 0 0 0 0 0 0 0 0 0 0 0 0
0 0 0 0 0 0 0 0 0 0 0 0 0 0 0 0 0 0 0 0 0 0 0 0 0 0 0 0 0 0 0 0 0 0 0 0 0 0 0 0 0 0 0 0
0 0 0 0 0 0 0 0 0 0 0 0 0 0 0 0 0 0 0 0 0 0 0 0 0 0 0 0 0 0 0 0 0 0 0 0 0 0 0 0 0 0 0 0
0 0 0 0 0 -0 0 0 0 0 0 0 0 0 0 0 0 0 0 0 0 0 0 0 0 0 0 0 0 0 0 0 0 0 0 0 0 0 0 0 0 0 0 0
0 0 0 0 0 0 0 0 0 0 0 0 0 0 0 0 0 0 0 0 0 0 0 0 0 0 0 0 0 0 0 0 0 0 0 0 0 0 0 0 0 0 0 0
0 0 0 0 0 0 0 0 0 0 0 0 0 0 0 0 0 0 0 0 0 0 0 0 0 0 0 0 0 0 0 0 0 0 0 0 0 0 0 0 0 0 0 0
0 0 0 0 0 0 0 0 0 0 0 0 0 0 0 0 0 0 0 0 0 0 0 0 0 0 0 0 0 0 0 0 0 0 0 0 0 0 0 0 0 0 0 0
0 0 0 0 0 0 0 0 0 0 0 0 0 0 0 0 0 0 0 0 0 0 0 0 0 0 0 0 0 0 0 0 0 0 0 0 0 0 0 0 0 0 0 0
0 0 0 0 0 0 0 0 0 0 0 0 0 0 0 0 0 0 0 0 0 0 0 0 0 0 0 0 0 0 0 0 0 0 0 0 0 0 0 0 0 0 0 0
0 0 0 0 0 0 0 0 0 0 0 0 0 0 0 0 0 0 0 0 0 0 0 0 0 0 0 0 0 0 0 0 0 0 0 0 0 0 0 0 0 0 0 0
0 0 0 0 0 0 0 0 0 0 0 0 0 0 0 0 0 0 0 0 0 0 0 0 0 0 0 0 0 0 0 0 -0 0 0 0 0 0 0 0 0 0 0 0
0 0 0 0 0 0 0 0 0 0 0 0 0 0 0 0 0 0 0 0 0 0 0 0 0 0 0 0 0 -0 -0 -0 -0 -0 -0 -0 -0 -0 0 0 0 0 0 0
0 0 0 0 0 0 0 0 0 0 0 0 0 0 0 0 0 0 0 0 0 0 0 0 0 0 0 0 0 0 -0 -0 -0 -0 -0 -0 -0 -0 -0 0 0 0 0 0
-0 0 0 0 0 0 0 0 0 0 0 0 0 0 0 0 0 0 0 0 0 0 0 0 0 0 0 0 0 0 0 0 -0 -0 -0 -0 0 0 0 0 0 0 0 0
0 0 0 0 0 0 0 0 0 0 0 0 0 0 0 0 0 0 0 0 0 0 0 0 0 0 0 0 0 0 0 0 0 0 0 0 0 0 0 0 0 0 0 0
0 -0 0 0 0 0 0 0 0 0 0 0 0 0 0 0 0 0 0 0 0 0 0 0 0 0 0 0 0 0 0 0 0 0 0 0 0 0 0 0 0 0 0 0
0 0 0 0 0 0 0 0 0 0 0 0 0 0 0 0 0 0 0 0 0 0 0 0 0 0 0 0 -0 -0 0 0 0 0 0 0 -0 -0 0 0 -0 0 0 0
0 0 0 0 0 0 0 0 0 0 0 0 0 0 0 0 0 0 0 0 0 0 0 0 0 0 0 -0 -0 -0 0 0 0 0 0 0 0 0 0 0 0 0 0 0
0 0 0 0 0 0 0 0 0 0 0 0 0 0 0 0 0 0 0 0 0 -0 -0 -0 0 0 0 0 0 0 0 0 0 0 0 0 0 0 0 0 0 0 0 0
0 0 0 0 0 0 0 0 0 0 0 0 0 -0 0 -0 -0 -0 -0 -0 -0 -0 -0 0 0 0 0 0 0 0 0 0 0 0 0 0 0 0 0 0 0 0 0 0
0 0 0 0 0 0 0 0 0 0 -0 -0 0 0 -0 -0 -0 -0 -0 -0 -0 0 0 0 0 0 0 0 0 0 0 0 0 0 0 0 0 0 0 0 0 0 0 0
Wind_Speed_500mb
5 4 5 4 8 9 11 11 12 10 13 5 5 14 15 14 6 9 10 12 13 14 12 12 14 16 16 20 23 20 22 24 29 29 33 37 38 43 55 58 59 61 60 60
4 7 10 11 18 18 21 12 20 16 21 4 6 5 6 3 16 15 11 12 15 17 15 12 11 11 14 13 11 15 15 17 26 35 39 47 52 49 51 57 61 64 68 66
19 4 8 16 25 24 12 14 15 15 8 9 5 7 8 13 18 23 22 22 21 18 17 16 13 8 5 5 8 9 7 12 20 29 38 42 44 45 47 52 56 62 67 67
15 4 21 11 7 13 13 12 17 9 11 11 12 11 11 12 23 26 28 20 16 15 13 13 12 10 8 11 7 6 7 9 13 18 20 27 33 39 48 55 63 66 72 76
8 13 14 15 9 15 14 6 14 20 20 22 18 15 11 19 22 21 19 18 15 13 12 9 10 11 17 19 18 12 11 17 24 26 26 24 25 25 31 39 46 55 55 64
7 9 11 10 20 15 13 10 30 29 31 35 23 10 8 18 19 16 10 9 11 10 10 10 15 17 18 20 22 23 24 25 27 27 27 28 28 30 31 37 43 47 51 38
13 13 11 17 9 27 16 3 50 48 44 40 14 3 18 26 20 14 5 2 6 6 7 9 13 16 19 24 30 34 34 32 30 29 27 31 36 37 38 41 43 42 44 34
7 13 16 19 21 19 15 7 46 52 48 41 18 10 24 24 18 13 7 7 6 3 4 9 16 22 28 31 33 33 38 42 41 37 34 32 32 37 40 39 42 43 46 59
17 10 1 26 12 13 8 7 33 54 53 40 26 24 30 24 16 12 10 10 9 8 10 16 23 30 33 36 40 44 45 46 48 47 46 38 36 35 36 43 45 45 42 51
9 13 17 25 34 45 29 32 36 45 53 45 38 36 33 26 20 17 17 15 13 12 17 24 33 37 42 43 44 43 43 42 42 45 46 47 45 37 38 38 39 43 44 48
8 9 10 19 27 27 33 27 37 43 45 40 40 37 32 28 25 26 22 18 16 20 24 31 36 40 38 39 40 36 33 32 36 42 45 44 41 40 40 42 38 36 37 38
14 13 9 5 14 26 28 30 43 47 41 40 38 34 31 28 26 28 23 20 19 23 28 34 37 32 33 34 36 39 36 37 42 46 42 39 36 36 37 37 41 42 41 42
2 18 7 9 13 21 28 41 45 48 43 42 38 33 27 25 26 23 19 17 18 24 31 30 28 30 34 37 39 36 37 40 43 43 40 38 35 37 40 42 38 38 40 43
47 33 32 24 16 16 24 45 48 44 43 41 38 33 27 25 20 18 15 13 15 19 12 18 29 34 34 26 28 34 37 35 36 42 40 39 39 34 36 39 35 33 28 37
32 36 46 47 50 52 42 53 56 54 51 46 38 33 29 23 17 15 14 12 8 3 11 24 31 31 28 21 28 31 34 36 39 37 37 36 32 29 31 34 37 35 29 31
71 50 40 46 35 40 49 57 58 58 54 48 42 35 27 22 18 16 11 6 10 5 13 25 35 37 33 35 33 32 34 34 34 36 34 34 26 25 30 37 43 38 30 26
66 62 50 38 35 36 61 69 66 62 57 49 39 32 26 21 19 15 12 14 9 8 12 22 30 39 41 42 43 36 31 35 36 40 41 32 23 17 25 28 30 26 20 23
74 75 77 71 62 46 56 59 63 60 54 45 38 31 24 19 17 18 21 17 13 10 14 19 27 32 37 41 47 50 42 39 41 43 44 32 19 15 21 25 24 23 23 22
73 64 62 58 64 62 61 68 61 57 50 44 37 27 22 20 23 27 25 20 14 12 14 21 24 28 33 37 38 43 42 46 42 39 44 42 34 25 25 27 27 26 23 21
60 54 65 54 52 51 69 69 67 59 50 41 33 29 28 30 33 33 28 21 16 11 14 20 22 26 30 32 35 39 38 40 44 50 54 50 49 44 41 37 31 24 24 23
49 45 49 37 50 53 62 74 70 61 49 36 31 32 37 39 37 32 29 20 11 5 9 16 18 22 29 32 34 38 43 41 41 44 44 45 44 47 45 39 42 43 30 28
52 53 48 43 52 60 65 72 64 53 44 40 37 45 43 39 34 30 26 18 10 3 5 11 15 20 22 27 32 36 40 44 47 45 45 49 50 49 44 37 37 44 47 39
51 56 57 52 59 63 73 67 55 46 46 47 56 48 42 35 31 28 23 17 12 9 10 15 19 23 25 27 30 33 36 40 42 46 47 48 48 48 49 48 45 42 42 36
58 59 63 60 65 82 77 62 52 47 52 59 51 47 48 44 34 25 20 18 18 21 25 23 20 22 23 25 27 28 30 34 37 40 41 42 43 43 43 43 43 43 43 42
56 63 73 70 89 83 73 66 59 68 64 59 56 52 46 37 31 29 26 26 30 30 23 19 16 13 12 15 19 22 27 31 36 40 43 43 41 40 39 39 40 40 40 39
66 74 82 95 88 79 75 72 82 73 68 64 57 48 41 34 31 32 32 29 24 19 15 11 6 3 4 8 12 16 21 27 32 35 39 42 42 41 40 39 38 37 36 35
72 91 88 78 76 74 76 86 80 72 68 58 50 40 33 29 28 28 25 20 15 10 7 6 8 11 14 17 19 21 22 25 30 35 40 43 44 45 44 43 40 37 34 32
Wind_Direction_500mb
236 237 226 256 252 213 256 270 244 278 239 258 298 305 308 286 183 133 96 76 60 55 34 1 335 319 307 305 314 310 303 281 272 270 268 256 255 265 265 255 254 258 255 252
251 211 226 262 261 253 257 250 249 262 270 249 317 311 343 269 155 135 95 77 60 37 33 32 2 333 326 323 301 305 291 293 285 276 272 264 275 274 269 259 258 260 259 261
260 208 267 254 248 247 198 203 216 222 267 164 118 88 78 119 119 112 101 95 89 70 48 33 19 338 331 4 320 305 312 308 291 282 284 279 276 272 269 266 262 263 259 249
272 213 258 274 292 243 249 239 229 252 165 157 136 115 89 115 128 118 110 102 84 72 55 45 31 30 4 349 324 307 281 275 300 302 296 294 290 282 275 268 266 267 264 265
239 233 288 271 202 167 197 230 210 189 158 155 147 131 106 131 132 124 105 98 95 86 72 43 25 21 11 9 13 3 322 302 301 291 282 286 291 295 290 283 281 284 282 275
163 222 244 261 208 179 161 251 179 177 172 167 167 176 146 154 141 140 116 92 59 40 12 0 5 14 19 20 14 10 2 351 336 322 310 286 281 283 283 280 277 277 279 260
198 233 255 257 199 158 195 264 177 186 182 173 187 56 150 156 146 139 143 19 354 345 340 18 30 11 352 352 345 344 341 338 335 332 324 301 289 281 276 278 278 273 269 256
169 213 243 162 146 195 203 204 182 184 186 182 184 158 157 165 166 180 205 269 284 302 8 4 342 337 333 324 320 319 317 317 315 313 310 307 303 290 283 279 277 274 267 254
206 211 163 194 245 221 273 231 191 189 189 189 192 195 186 187 194 214 234 252 260 271 313 328 332 330 326 320 315 312 310 306 304 303 303 297 290 287 284 279 279 283 273 269
167 198 225 240 248 249 264 234 213 194 192 200 196 191 190 195 210 231 241 242 249 272 296 320 326 329 327 323 319 319 319 318 317 315 311 302 294 284 279 280 278 274 274 275
228 261 269 244 238 230 227 218 185 178 185 189 188 191 197 205 217 228 233 236 255 284 307 318 320 320 319 320 325 330 331 333 335 333 323 312 305 299 289 276 270 274 274 271
223 200 201 189 198 183 189 187 189 188 186 189 192 196 202 211 221 222 221 241 272 296 311 316 318 323 321 325 328 328 326 323 326 335 338 329 318 309 301 291 280 268 266 269
252 343 221 146 183 206 200 195 198 198 197 191 196 203 210 214 213 210 230 254 281 306 314 321 334 342 331 326 330 330 323 321 323 327 336 341 333 323 317 309 296 278 266 261
256 251 253 247 233 236 231 217 209 198 195 199 202 202 208 209 209 219 237 265 299 313 337 358 353 345 341 341 357 357 350 344 334 329 330 336 340 340 337 328 316 309 281 271
271 248 243 253 263 266 246 209 194 192 195 197 199 199 202 210 214 221 237 271 290 85 20 4 3 0 2 11 4 360 2 359 349 341 337 325 323 335 343 337 328 310 302 288
245 248 237 230 243 232 212 192 189 190 196 193 192 196 204 205 216 231 249 216 144 76 41 32 30 27 26 24 13 8 15 13 3 353 343 344 326 329 336 338 337 319 293 291
233 230 226 226 223 209 200 198 198 201 194 192 193 198 198 207 219 223 192 165 147 89 48 28 32 32 30 29 25 16 15 14 20 8 355 345 338 325 338 336 340 348 340 314
239 239 232 230 224 219 204 202 202 199 192 190 193 193 202 211 209 185 168 158 139 87 46 35 30 27 28 34 33 36 37 29 27 23 18 20 19 349 340 341 346 338 330 307
251 240 233 228 230 231 221 210 201 191 187 188 189 193 194 195 178 166 160 152 137 108 56 42 38 30 32 32 30 35 40 41 41 35 40 37 33 11 347 337 334 328 322 329
248 242 228 234 231 224 214 204 190 182 183 182 183 185 182 171 164 161 159 156 145 102 47 39 33 32 32 33 34 36 36 38 42 47 47 49 43 36 34 26 17 352 325 313
232 224 212 221 216 211 209 194 182 178 176 180 185 180 168 163 163 166 170 169 163 99 42 34 35 40 40 37 39 42 43 42 40 39 39 37 38 39 39 34 31 32 22 13
228 229 227 216 202 191 188 178 174 171 173 173 168 163 163 166 169 174 182 183 182 148 90 41 46 45 46 46 47 48 48 48 49 46 43 40 38 37 37 32 32 38 35 33
215 216 205 198 192 181 169 169 167 171 172 168 158 160 160 160 159 159 161 163 152 135 116 90 79 72 67 64 60 56 50 45 42 41 38 36 34 33 32 31 26 23 26 25
205 202 192 185 177 166 158 159 163 165 159 152 154 153 147 142 136 134 134 136 135 130 122 116 103 88 75 65 56 46 38 30 27 24 22 20 19 19 18 18 18 17 17 18
196 185 183 172 163 158 156 156 156 152 151 152 150 146 142 137 132 131 128 128 130 131 132 125 112 102 79 56 43 31 21 14 8 3 1 360 359 359 0 2 4 4 7 8
168 166 163 163 161 157 157 155 152 153 153 152 152 151 149 145 142 145 142 139 141 140 140 137 130 94 2 348 346 350 354 353 352 353 352 352 349 347 346 346 347 349 351 355
141 148 149 152 154 155 156 155 152 153 154 153 153 157 162 166 160 165 165 168 176 193 215 252 277 290 298 303 308 317 327 335 343 346 350 351 350 349 346 344 343 341 340 341
Wind_Speed_850mb
5 4 5 4 8 9 11 11 12 10 13 5 5 14 15 14 6 9 10 12 13 14 12 12 14 16 16 20 23 20 22 24 29 29 33 37 38 43 55 58 59 61 60 60
4 7 10 11 18 18 21 12 20 16 21 4 6 5 6 3 16 15 11 12 15 17 15 12 11 11 14 13 11 15 15 17 26 35 39 47 52 49 51 57 61 64 68 66
19 4 8 16 25 24 12 14 15 15 8 9 5 7 8 13 18 23 22 22 21 18 17 16 13 8 5 5 8 9 7 12 20 29 38 42 44 45 47 52 56 62 67 67
15 4 21 11 7 13 13 12 17 9 11 11 12 11 11 12 23 26 28 20 16 15 13 13 12 10 8 11 7 6 7 9 13 18 20 27 33 39 48 55 63 66 72 76
8 13 14 15 9 15 14 6 14 20 20 22 18 15 11 19 22 21 19 18 15 13 12 9 10 11 17 19 18 12 11 17 24 26 26 24 25 25 31 39 46 55 55 64
7 9 11 10 20 15 13 10 30 29 31 35 23 10 8 18 19 16 10 9 11 10 10 10 15 17 18 20 22 23 24 25 27 27 27 28 28 30 31 37 43 47 51 38
13 13 11 17 9 27 16 3 50 48 44 40 14 3 18 26 20 14 5 2 6 6 7 9 13 16 19 24 30 34 34 32 30 29 27 31 36 37 38 41 43 42 44 34
7 13 16 19 21 19 15 7 46 52 48 41 18 10 24 24 18 13 7 7 6 3 4 9 16 22 28 31 33 33 38 42 41 37 34 32 32 37 40 39 42 43 46 59
17 10 1 26 12 13 8 7 33 54 53 40 26 24 30 24 16 12 10 10 9 8 10 16 23 30 33 36 40 44 45 46 48 47 46 38 36 35 36 43 45 45 42 51
9 13 17 25 34 45 29 32 36 45 53 45 38 36 33 26 20 17 17 15 13 12 17 24 33 37 42 43 44 43 43 42 42 45 46 47 45 37 38 38 39 43 44 48
8 9 10 19 27 27 33 27 37 43 45 40 40 37 32 28 25 26 22 18 16 20 24 31 36 40 38 39 40 36 33 32 36 42 45 44 41 40 40 42 38 36 37 38
14 13 9 5 14 26 28 30 43 47 41 40 38 34 31 28 26 28 23 20 19 23 28 34 37 32 33 34 36 39 36 37 42 46 42 39 36 36 37 37 41 42 41 42
2 18 7 9 13 21 28 41 45 48 43 42 38 33 27 25 26 23 19 17 18 24 31 30 28 30 34 37 39 36 37 40 43 43 40 38 35 37 40 42 38 38 40 43
47 33 32 24 16 16 24 45 48 44 43 41 38 33 27 25 20 18 15 13 15 19 12 18 29 34 34 26 28 34 37 35 36 42 40 39 39 34 36 39 35 33 28 37
32 36 46 47 50 52 42 53 56 54 51 46 38 33 29 23 17 15 14 12 8 3 11 24 31 31 28 21 28 31 34 36 39 37 37 36 32 29 31 34 37 35 29 31
71 50 40 46 35 40 49 57 58 58 54 48 42 35 27 22 18 16 11 6 10 5 13 25 35 37 33 35 33 32 34 34 34 36 34 34 26 25 30 37 43 38 30 26
66 62 50 38 35 36 61 69 66 62 57 49 39 32 26 21 19 15 12 14 9 8 12 22 30 39 41 42 43 36 31 35 36 40 41 32 23 17 25 28 30 26 20 23
74 75 77 71 62 46 56 59 63 60 54 45 38 31 24 19 17 18 21 17 13 10 14 19 27 32 37 41 47 50 42 39 41 43 44 32 19 15 21 25 24 23 23 22
73 64 62 58 64 62 61 68 61 57 50 44 37 27 22 20 23 27 25 20 14 12 14 21 24 28 33 37 38 43 42 46 42 39 44 42 34 25 25 27 27 26 23 21
60 54 65 54 52 51 69 69 67 59 50 41 33 29 28 30 33 33 28 21 16 11 14 20 22 26 30 32 35 39 38 40 44 50 54 50 49 44 41 37 31 24 24 23
49 45 49 37 50 53 62 74 70 61 49 36 31 32 37 39 37 32 29 20 11 5 9 16 18 22 29 32 34 38 43 41 41 44 44 45 44 47 45 39 42 43 30 28
52 53 48 43 52 60 65 72 64 53 44 40 37 45 43 39 34 30 26 18 10 3 5 11 15 20 22 27 32 36 40 44 47 45 45 49 50 49 44 37 37 44 47 39
51 56 57 52 59 63 73 67 55 46 46 47 56 48 42 35 31 28 23 17 12 9 10 15 19 23 25 27 30 33 36 40 42 46 47 48 48 48 49 48 45 42 42 36
58 59 63 60 65 82 77 62 52 47 52 59 51 47 48 44 34 25 20 18 18 21 25 23 20 22 23 25 27 28 30 34 37 40 41 42 43 43 43 43 43 43 43 42
56 63 73 70 89 83 73 66 59 68 64 59 56 52 46 37 31 29 26 26 30 30 23 19 16 13 12 15 19 22 27 31 36 40 43 43 41 40 39 39 40 40 40 39
66 74 82 95 88 79 75 72 82 73 68 64 57 48 41 34 31 32 32 29 24 19 15 11 6 3 4 8 12 16 21 27 32 35 39 42 42 41 40 39 38 37 36 35
72 91 88 78 76 74 76 86 80 72 68 58 50 40 33 29 28 28 25 20 15 10 7 6 8 11 14 17 19 21 22 25 30 35 40 43 44 45 44 43 40 37 34 32
Wind_Direction_850mb
236 237 226 256 252 213 256 270 244 278 239 258 298 305 308 286 183 133 96 76 60 55 34 1 335 319 307 305 314 310 303 281 272 270 268 256 255 265 265 255 254 258 255 252
251 211 226 262 261 253 257 250 249 262 270 249 317 311 343 269 155 135 95 77 60 37 33 32 2 333 326 323 301 305 291 293 285 276 272 264 275 274 269 259 258 260 259 261
260 208 267 254 248 247 198 203 216 222 267 164 118 88 78 119 119 112 101 95 89 70 48 33 19 338 331 4 320 305 312 308 291 282 284 279 276 272 269 266 262 263 259 249
272 213 258 274 292 243 249 239 229 252 165 157 136 115 89 115 128 118 110 102 84 72 55 45 31 30 4 349 324 307 281 275 300 302 296 294 290 282 275 268 266 267 264 265
239 233 288 271 202 167 197 230 210 189 158 155 147 131 106 131 132 124 105 98 95 86 72 43 25 21 11 9 13 3 322 302 301 291 282 286 291 295 290 283 281 284 282 275
163 222 244 261 208 179 161 251 179 177 172 167 167 176 146 154 141 140 116 92 59 40 12 0 5 14 19 20 14 10 2 351 336 322 310 286 281 283 283 280 277 277 279 260
198 233 255 257 199 158 195 264 177 186 182 173 187 56 150 156 146 139 143 19 354 345 340 18 30 11 352 352 345 344 341 338 335 332 324 301 289 281 276 278 278 273 269 256
169 213 243 162 146 195 203 204 182 184 186 182 184 158 157 165 166 180 205 269 284 302 8 4 342 337 333 324 320 319 317 317 315 313 310 307 303 290 283 279 277 274 267 254
206 211 163 194 245 221 273 231 191 189 189 189 192 195 186 187 194 214 234 252 260 271 313 328 332 330 326 320 315 312 310 306 304 303 303 297 290 287 284 279 279 283 273 269
167 198 225 240 248 249 264 234 213 194 192 200 196 191 190 195 210 231 241 242 249 272 296 320 326 329 327 323 319 319 319 318 317 315 311 302 294 284 279 280 278 274 274 275
228 261 269 244 238 230 227 218 185 178 185 189 188 191 197 205 217 228 233 236 255 284 307 318 320 320 319 320 325 330 331 333 335 333 323 312 305 299 289 276 270 274 274 271
223 200 201 189 198 183 189 187 189 188 186 189 192 196 202 211 221 222 221 241 272 296 311 316 318 323 321 325 328 328 326 323 326 335 338 329 318 309 301 291 280 268 266 269
252 343 221 146 183 206 200 195 198 198 197 191 196 203 210 214 213 210 230 254 281 306 314 321 334 342 331 326 330 330 323 321 323 327 336 341 333 323 317 309 296 278 266 261
256 251 253 247 233 236 231 217 209 198 195 199 202 202 208 209 209 219 237 265 299 313 337 358 353 345 341 341 357 357 350 344 334 329 330 336 340 340 337 328 316 309 281 271
271 248 243 253 263 266 246 209 194 192 195 197 199 199 202 210 214 221 237 271 290 85 20 4 3 0 2 11 4 360 2 359 349 341 337 325 323 335 343 337 328 310 302 288
245 248 237 230 243 232 212 192 189 190 196 193 192 196 204 205 216 231 249 216 144 76 41 32 30 27 26 24 13 8 15 13 3 353 343 344 326 329 336 338 337 319 293 291
233 230 226 226 223 209 200 198 198 201 194 192 193 198 198 207 219 223 192 165 147 89 48 28 32 32 30 29 25 16 15 14 20 8 355 345 338 325 338 336 340 348 340 314
239 239 232 230 224 219 204 202 202 199 192 190 193 193 202 211 209 185 168 158 139 87 46 35 30 27 28 34 33 36 37 29 27 23 18 20 19 349 340 341 346 338 330 307
251 240 233 228 230 231 221 210 201 191 187 188 189 193 194 195 178 166 160 152 137 108 56 42 38 30 32 32 30 35 40 41 41 35 40 37 33 11 347 337 334 328 322 329
248 242 228 234 231 224 214 204 190 182 183 182 183 185 182 171 164 161 159 156 145 102 47 39 33 32 32 33 34 36 36 38 42 47 47 49 43 36 34 26 17 352 325 313
232 224 212 221 216 211 209 194 182 178 176 180 185 180 168 163 163 166 170 169 163 99 42 34 35 40 40 37 39 42 43 42 40 39 39 37 38 39 39 34 31 32 22 13
228 229 227 216 202 191 188 178 174 171 173 173 168 163 163 166 169 174 182 183 182 148 90 41 46 45 46 46 47 48 48 48 49 46 43 40 38 37 37 32 32 38 35 33
215 216 205 198 192 181 169 169 167 171 172 168 158 160 160 160 159 159 161 163 152 135 116 90 79 72 67 64 60 56 50 45 42 41 38 36 34 33 32 31 26 23 26 25
205 202 192 185 177 166 158 159 163 165 159 152 154 153 147 142 136 134 134 136 135 130 122 116 103 88 75 65 56 46 38 30 27 24 22 20 19 19 18 18 18 17 17 18
196 185 183 172 163 158 156 156 156 152 151 152 150 146 142 137 132 131 128 128 130 131 132 125 112 102 79 56 43 31 21 14 8 3 1 360 359 359 0 2 4 4 7 8
168 166 163 163 161 157 157 155 152 153 153 152 152 151 149 145 142 145 142 139 141 140 140 137 130 94 2 348 346 350 354 353 352 353 352 352 349 347 346 346 347 349 351 355
141 148 149 152 154 155 156 155 152 153 154 153 153 157 162 166 160 165 165 168 176 193 215 252 277 290 298 303 308 317 327 335 343 346 350 351 350 349 346 344 343 341 340 341